Location: Peterborough
(44.3091°N, 78.3197°W)
Time: 17:44:33
(UTC-04:00)

Transit 4A - Pass Details

Date: 22 March 2023
Orbit: 864 x 980 km, 66.8° (Epoch: 04 June)

Event Time Altitude Azimuth Distance (km) Brightness Sun altitude
Rises 06:35:34 0° 157° (SSE) 3,429 11.1 -7.5°
Reaches altitude 10° 06:39:14 10° 133° (SE) 2,501 10.8 -6.9°
Maximum altitude 06:42:08 14° 102° (ESE) 2,221 11.2 -6.4°
Drops below altitude 10° 06:45:04 10° 72° (ENE) 2,527 11.9 -5.8°
Sets 06:48:47 0° 49° (NE) 3,489 11.9 -5.2°
